User: anonymous   Login
Location: Caltech
(34.1382°N, 118.1253°W)
Time: 06:34:18
(UTC-07:00)
Language:

ASTRO E2 - Orbit

View from above orbital plane
View from above orbital plane
View from above satellite
View from above satellite

Ground track
Ground track

The orbit data is extracted from the following two-line orbital elements,

1 28773U 05025A   18170.93158531 +.00000887 +00000-0 +39942-4 0  9995
2 28773 031.3834 070.1735 0004410 081.3184 278.7962 15.16573960713238
Epoch (UTC): 19 June 2018 22:21:28
Eccentricity: 0.0004410
inclination: 31.3834°
perigee height: 513 km
apogee height: 519 km
right ascension of ascending node: 70.1735°
argument of perigee: 81.3184°
revolutions per day: 15.16573960
mean anomaly at epoch: 278.7962°
orbit number at epoch: 71323

The dashed part of the orbit path shows where the satellite is in the earth's shadow,  

DLR